GW4987 Weather Reports


time (UTC)temp
F
wind
direction
speed
knots
gust
knots
rain 1hr
in
rain 24hr
in
rain mn
in
humidity
%
barometer
mb
20260503004056 68 215 4.3 7.0 0.00 0.00 0.00 27 1017.7
20260503003535 68 214 6.1 10.4 0.00 0.00 0.00 26 1017.9
20260503003055 68 175 8.7 12.2 0.00 0.00 0.00 26 1017.8
20260503002555 69 209 4.3 6.1 0.00 0.00 0.00 25 1017.7
20260503002014 70 156 4.3 6.1 0.00 0.00 0.00 25 1017.8
20260503001555 69 126 4.3 6.1 0.00 0.00 0.00 26 1017.6
20260503001056 69 206 4.3 7.8 0.00 0.00 0.00 25 1017.8
20260503000514 69 205 6.1 7.0 0.00 0.00 0.00 25 1017.7
20260503000014 69 128 5.2 5.2 0.00 0.00 0.00 25 1017.7
20260502235556 69 129 9.6 12.2 0.00 0.00 0.00 25 1017.7
20260502235014 69 185 4.3 8.7 0.00 0.00 0.00 25 1017.7
20260502234555 69 227 3.5 6.1 0.00 0.00 0.00 25 1017.8
20260502234056 69 93 6.1 7.0 0.00 0.00 0.00 24 1018.0
20260502233555 69 154 3.5 5.2 0.00 0.00 0.00 24 1017.6
20260502233014 69 137 3.5 7.0 0.00 0.00 0.00 25 1017.7
20260502232555 69 91 4.3 8.7 0.00 0.00 0.00 24 1017.6
20260502231014 70 134 2.6 3.5 0.00 0.00 0.00 24 1017.7
20260502230555 71 129 4.3 4.3 0.00 0.00 0.00 23 1017.7
20260502230056 70 175 2.6 4.3 0.00 0.00 0.00 23 1017.8
20260502224013 71 125 4.3 6.1 0.00 0.00 0.00 23 1017.8
20260502223555 72 120 3.5 5.2 0.00 0.00 0.00 22 1017.9
20260502223056 71 176 1.7 11.3 0.00 0.00 0.00 22 1018.0
20260502222513 73 92 6.1 6.1 0.00 0.00 0.00 21 1018.0
20260502222013 72 101 5.2 8.7 0.00 0.00 0.00 22 1018.0
20260502221556 73 123 4.3 7.0 0.00 0.00 0.00 22 1018.0
20260502215555 70 80 5.2 7.0 0.00 0.00 0.00 22 1018.3
20260502215013 71 63 9.6 9.6 0.00 0.00 0.00 22 1018.2
20260502214555 70 91 3.5 8.7 0.00 0.00 0.00 22 1018.3
20260502214055 70 67 4.3 8.7 0.00 0.00 0.00 22 1018.4
20260502213556 69 115 7.0 13.9 0.00 0.00 0.00 23 1018.5
20260502213013 72 111 3.5 9.6 0.00 0.00 0.00 22 1018.3
20260502212555 72 260 1.7 10.4 0.00 0.00 0.00 22 1018.6
20260502212056 71 31 8.7 13.0 0.00 0.00 0.00 22 1018.7
20260502211555 70 73 10.4 10.4 0.00 0.00 0.00 22 1018.7
20260502211055 71 80 12.2 17.4 0.00 0.00 0.00 22 1018.7
20260502210556 72 93 9.6 11.3 0.00 0.00 0.00 22 1018.8
20260502210013 70 130 2.6 7.8 0.00 0.00 0.00 22 1019.0
20260502205555 69 168 2.6 8.7 0.00 0.00 0.00 23 1018.9
20260502205055 71 71 5.2 10.4 0.00 0.00 0.00 22 1019.2
20260502204514 69 77 6.1 12.2 0.00 0.00 0.00 23 1019.2
20260502204014 69 95 7.0 11.3 0.00 0.00 0.00 23 1019.0
20260502203556 70 88 10.4 14.8 0.00 0.00 0.00 22 1019.3
20260502201555 71 207 6.1 9.6 0.00 0.00 0.00 21 1019.4
20260502201013 70 36 2.6 7.8 0.00 0.00 0.00 22 1019.6
20260502200555 71 68 7.8 11.3 0.00 0.00 0.00 21 1019.5
20260502200056 71 62 4.3 10.4 0.00 0.00 0.00 21 1019.5
20260502195556 70 81 4.3 9.6 0.00 0.00 0.00 22 1019.5
20260502195013 72 44 7.8 9.6 0.00 0.00 0.00 22 1019.6
20260502194555 69 30 6.1 9.6 0.00 0.00 0.00 22 1019.6
20260502194055 70 128 7.8 12.2 0.00 0.00 0.00 22 1019.5
20260502193555 71 117 3.5 8.7 0.00 0.00 0.00 22 1019.6
20260502193055 70 7 7.0 11.3 0.00 0.00 0.00 22 1019.6
20260502192555 71 246 3.5 4.3 0.00 0.00 0.00 21 1019.5
20260502185056 69 15 7.8 9.6 0.00 0.00 0.00 23 1020.1
20260502184555 67 33 7.8 13.9 0.00 0.00 0.00 23 1020.1
20260502184056 70 0 5.2 12.2 0.00 0.00 0.00 22 1020.2
20260502183555 69 42 6.1 9.6 0.00 0.00 0.00 22 1020.2
20260502183013 69 68 1.7 7.0 0.00 0.00 0.00 23 1020.3
20260502182556 68 89 4.3 13.0 0.00 0.00 0.00 23 1020.2
20260502182055 69 62 9.6 11.3 0.00 0.00 0.00 23 1020.2
20260502181514 69 13 5.2 11.3 0.00 0.00 0.00 24 1020.5
20260502164055 65 71 8.7 15.6 0.00 0.00 0.00 27 1020.6
20260502163555 65 102 6.1 11.3 0.00 0.00 0.00 27 1020.6
20260502163014 64 58 8.7 13.9 0.00 0.00 0.00 28 1020.7
20260502162555 65 99 6.1 7.8 0.00 0.00 0.00 28 1020.4
20260502162055 64 96 6.1 13.9 0.00 0.00 0.00 28 1020.5
20260502152056 61 34 6.1 10.4 0.00 0.00 0.00 28 1020.2
20260502151556 61 105 6.1 7.8 0.00 0.00 0.00 28 1020.2
20260502151014 61 38 5.2 7.0 0.00 0.00 0.00 27 1020.2
20260502150556 61 8 2.6 7.0 0.00 0.00 0.00 28 1020.2
20260502130556 43 273 2.6 4.3 0.00 0.00 0.00 45 1019.3
20260502123555 41 264 3.5 4.3 0.00 0.00 0.00 48 1019.0
20260502123055 41 262 3.5 4.3 0.00 0.00 0.00 48 1019.2
20260502122514 41 256 3.5 3.5 0.00 0.00 0.00 48 1019.0
20260502122014 42 263 3.5 4.3 0.00 0.00 0.00 46 1018.9
20260502121556 42 264 3.5 4.3 0.00 0.00 0.00 46 1019.0
20260502121014 41 267 3.5 4.3 0.00 0.00 0.00 48 1018.8
20260502120555 42 263 3.5 3.5 0.00 0.00 0.00 48 1018.9
20260502115556 42 273 2.6 2.6 0.00 0.00 0.00 47 1018.8
20260502115014 42 253 3.5 4.3 0.00 0.00 0.00 47 1018.8
20260502114555 41 264 3.5 4.3 0.00 0.00 0.00 49 1018.8
20260502114055 41 263 4.3 4.3 0.00 0.00 0.00 49 1018.7
20260502113556 41 267 4.3 5.2 0.00 0.00 0.00 49 1018.9
20260502113014 42 261 4.3 4.3 0.00 0.00 0.00 48 1018.8
20260502112555 43 264 4.3 5.2 0.00 0.00 0.00 47 1018.9
20260502112014 42 277 4.3 4.3 0.00 0.00 0.00 49 1018.9
20260502111556 42 289 3.5 4.3 0.00 0.00 0.00 48 1018.7
20260502111056 42 266 1.7 4.3 0.00 0.00 0.00 48 1019.0
20260502110556 42 268 3.5 5.2 0.00 0.00 0.00 48 1018.8
20260502110014 42 279 4.3 5.2 0.00 0.00 0.00 48 1018.8
20260502105555 42 268 4.3 4.3 0.00 0.00 0.00 48 1019.0
20260502105056 42 258 4.3 4.3 0.00 0.00 0.00 48 1018.9
20260502104514 42 268 4.3 4.3 0.00 0.00 0.00 48 1018.8
20260502104014 42 272 3.5 4.3 0.00 0.00 0.00 47 1019.0
20260502103556 43 262 3.5 3.5 0.00 0.00 0.00 46 1018.8
20260502101555 43 265 3.5 4.3 0.00 0.00 0.00 46 1018.9
20260502101013 42 261 2.6 3.5 0.00 0.00 0.00 47 1019.0
20260502100556 43 266 2.6 3.5 0.00 0.00 0.00 46 1018.8
20260502071015 48 267 2.6 2.6 0.00 0.00 0.00 36 1019.3
20260502070517 48 266 1.7 2.6 0.00 0.00 0.00 35 1019.2
20260502070013 47 263 2.6 2.6 0.00 0.00 0.00 36 1019.2
20260502065555 46 267 3.5 4.3 0.00 0.00 0.00 37 1019.2
20260502065015 47 264 2.6 4.3 0.00 0.00 0.00 37 1019.0
20260502064555 47 248 2.6 3.5 0.00 0.00 0.00 35 1019.2
20260502064056 47 277 1.7 4.3 0.00 0.00 0.00 37 1019.2
20260502063556 48 259 2.6 2.6 0.00 0.00 0.00 34 1019.0
20260502061055 48 256 2.6 2.6 0.00 0.00 0.00 34 1018.9
20260502060555 49 262 2.6 4.3 0.00 0.00 0.00 33 1018.9
20260502060014 49 252 2.6 2.6 0.00 0.00 0.00 34 1018.9
20260502055555 50 257 2.6 2.6 0.00 0.00 0.00 32 1019.0
20260502055056 49 294 2.6 3.5 0.00 0.00 0.00 33 1018.8
20260502054514 49 281 1.7 3.5 0.00 0.00 0.00 34 1018.9
20260502054014 50 219 1.7 2.6 0.00 0.00 0.00 32 1018.7
20260502053556 50 263 1.7 2.6 0.00 0.00 0.00 32 1018.9
20260502053015 51 261 0.0 2.6 0.00 0.00 0.00 31 1018.8
20260502052555 51 315 0.0 2.6 0.00 0.00 0.00 31 1018.8
20260502052055 51 243 1.7 2.6 0.00 0.00 0.00 31 1018.7
20260502051555 52 161 0.0 3.5 0.00 0.00 0.00 30 1018.8
20260502051014 52 100 1.7 1.7 0.00 0.00 0.00 30 1018.8
20260502050555 53 241 0.0 3.5 0.00 0.00 0.00 29 1018.6
20260502050055 53 266 3.5 5.2 0.00 0.00 0.00 29 1018.5
20260502044555 55 268 3.5 3.5 0.00 0.00 0.00 27 1018.3
20260502044055 56 259 3.5 4.3 0.00 0.00 0.00 27 1018.3
20260502043556 56 260 3.5 5.2 0.00 0.00 0.00 27 1018.3
20260502043055 56 282 1.7 3.5 0.00 0.00 0.00 27 1018.4
20260502042555 57 279 0.0 2.6 0.00 0.00 0.00 26 1018.2
20260502040514 59 299 4.3 5.2 0.00 0.00 0.00 24 1018.0
20260502040015 59 304 7.0 7.8 0.00 0.00 0.00 24 1017.9
20260502035556 60 338 2.6 6.1 0.00 0.00 0.00 23 1018.0
20260502035014 60 292 3.5 7.8 0.00 0.00 0.00 23 1018.0
20260502034555 60 294 4.3 7.8 0.00 0.00 0.00 23 1017.9
20260502034056 60 284 3.5 6.1 0.00 0.00 0.00 23 1017.8
20260502033555 60 3 3.5 7.8 0.00 0.00 0.00 23 1017.7
20260502033014 61 313 1.7 7.8 0.00 0.00 0.00 23 1017.7
20260502032555 60 335 4.3 9.6 0.00 0.00 0.00 23 1017.5
20260502032055 61 354 4.3 10.4 0.00 0.00 0.00 23 1017.6
20260502031515 61 74 2.6 8.7 0.00 0.00 0.00 23 1017.5
20260502031014 61 6 5.2 9.6 0.00 0.00 0.00 23 1017.4
20260502030555 61 0 6.1 7.8 0.00 0.00 0.00 23 1017.2
20260502030015 62 138 2.6 6.1 0.00 0.00 0.00 23 1017.3
20260502025555 62 350 6.1 7.8 0.00 0.00 0.00 23 1017.2
20260502025055 62 313 2.6 11.3 0.00 0.00 0.00 22 1017.3
20260502024556 62 296 10.4 12.2 0.00 0.00 0.00 22 1017.0
20260502024015 63 3 3.5 9.6 0.00 0.00 0.00 22 1017.0
20260502023555 64 3 8.7 15.6 0.00 0.00 0.00 20 1016.8
20260502023056 64 281 7.8 8.7 0.00 0.00 0.00 19 1016.5
20260502021014 65 283 6.1 15.6 0.00 0.00 0.00 19 1016.2
20260502020555 65 320 8.7 11.3 0.00 0.00 0.00 19 1016.1
20260502020055 66 329 2.6 4.3 0.00 0.00 0.00 19 1016.1
20260502015555 68 280 1.7 3.5 0.00 0.00 0.00 19 1016.2
20260502015015 68 303 2.6 3.5 0.00 0.00 0.00 18 1016.0
20260502014555 68 285 1.7 3.5 0.00 0.00 0.00 19 1015.9
20260502014056 68 325 2.6 3.5 0.00 0.00 0.00 18 1016.1
20260502013556 69 325 2.6 2.6 0.00 0.00 0.00 18 1015.9
20260502013014 68 9 1.7 4.3 0.00 0.00 0.00 18 1015.9
20260502012555 67 321 1.7 3.5 0.00 0.00 0.00 18 1015.9
20260502012055 68 344 3.5 4.3 0.00 0.00 0.00 18 1015.9
20260502011555 66 353 4.3 4.3 0.00 0.00 0.00 19 1015.9
20260502011055 66 309 3.5 6.1 0.00 0.00 0.00 19 1015.9
20260502010555 66 331 3.5 7.8 0.00 0.00 0.00 19 1015.7
20260502010014 67 300 1.7 5.2 0.00 0.00 0.00 18 1015.8
20260502005555 67 13 0.0 7.8 0.00 0.00 0.00 19 1015.9
20260502005056 67 0 5.2 6.1 0.00 0.00 0.00 18 1015.9
20260502004514 67 338 5.2 6.1 0.00 0.00 0.00 18 1015.7